Address 0x9b204bef339cbe8807e63d7c9afda6d41c9bab4a 16

Overview

Balance:
0.0006552098 ETH

Token:
My Name Tag:
Not Available

Txn Hash Method
Block
From
To
Value [Txn Fee]
0x713176f00828f104c37ca9007e644f3ff3c78cba44bd02509ffde62222a0a3420xd44f70b4158632472022-09-26 4:32:592 hrs 11 mins ago0x9b204bef339cbe8807e63d7c9afda6d41c9bab4aOUT 0xc95daf083b754210458e62ead997453f74f470720 ETH0.00000832
0x7a5ad60425c9a7372b99d039059919b72a4c86f9b45d861deed9f0c8c3c077f2Approve158632432022-09-26 4:32:512 hrs 11 mins ago0x9b204bef339cbe8807e63d7c9afda6d41c9bab4aOUT 0x746e17a0a880d37efc2d16ceaff34c724a87d9820 ETH0.00000465
0x510705613bd9234800bc27b53a2525cdf0bae8b87b33278ba3992f7406683b290x46e04a2f158632342022-09-26 4:32:262 hrs 11 mins ago0x9b204bef339cbe8807e63d7c9afda6d41c9bab4aOUT 0x746e17a0a880d37efc2d16ceaff34c724a87d9820 ETH0.00000733
0x68c67bb6081a5ad10309a297ae20d29c12e8cfcdf99d0e324e05144c16ed4ba9Transfer153099032022-09-09 13:27:5416 days 17 hrs ago0x9b204bef339cbe8807e63d7c9afda6d41c9bab4aOUT0xbdca0d5a295242d1871cabe56cbe089076fc0b7f0.0003 ETH0.0000021
0x7107434b0ed7d53be5a1bab492e594cc5a1b067d3b86b9090fc06554e45a6edaTransfer153098532022-09-09 13:24:5016 days 17 hrs ago0x9b204bef339cbe8807e63d7c9afda6d41c9bab4aOUT 0xebbc3452cc911591e4f18f3b36727df45d6bd1f90 ETH0.00000517
0xca4a71cc1a51fdd0c25f1e8f7aedc4c00765a36bb9267eee665a93490e3f5792Transfer153098332022-09-09 13:24:1116 days 17 hrs ago0x9b204bef339cbe8807e63d7c9afda6d41c9bab4aOUT 0xebbc3452cc911591e4f18f3b36727df45d6bd1f90 ETH0.00000517
0xb7c46178f863500164020917f8a34ba6b4f2c11aed1c7738d6bb1c5ad013d1900xd44f70b4151196032022-09-03 4:36:5623 days 2 hrs ago0x9b204bef339cbe8807e63d7c9afda6d41c9bab4aOUT 0xc95daf083b754210458e62ead997453f74f470720.059825295399999 ETH0.00001201
0x4f0dd7b1fdf5f679eedf4172c917ca227aabb4774f2dfe7c39aff908bc8bbe0b0xd44f70b4151195682022-09-03 4:35:2323 days 2 hrs ago0x9b204bef339cbe8807e63d7c9afda6d41c9bab4aOUT 0xc95daf083b754210458e62ead997453f74f470720.09 ETH0.00001841
0x02c1676f8e94976b3d8f3eec35ed099a8a0996b36cc6f59b0ba96aaa0fc111d5Transfer151195352022-09-03 4:33:3923 days 2 hrs ago0x9044660082520835ad243ca047be65d0369ac875 IN 0x9b204bef339cbe8807e63d7c9afda6d41c9bab4a0.15 ETH0.0000021
0x2b4fb5ec137bc66bdb8cb6036a2951edc53e0f97a260323f0666f4769b263d320xd44f70b4151194752022-09-03 4:30:2023 days 2 hrs ago0x9b204bef339cbe8807e63d7c9afda6d41c9bab4aOUT 0xc95daf083b754210458e62ead997453f74f470720 ETH0.00001411
0xc68109687ab6a3c1b335fde107021796b138be1ecef73d177b291ae193902ba20xd44f70b4151194682022-09-03 4:30:0023 days 2 hrs ago0x9b204bef339cbe8807e63d7c9afda6d41c9bab4aOUT 0xc95daf083b754210458e62ead997453f74f470720 ETH0.00002097
0x972817359b4f223985ca42a7d9c0ab47e217d2fe97c04c49eb5e0bfcfe0d78850xd44f70b4151194282022-09-03 4:27:3423 days 2 hrs ago0x9b204bef339cbe8807e63d7c9afda6d41c9bab4aOUT 0xc95daf083b754210458e62ead997453f74f470720 ETH0.00002294
0x5f7a9e05a982d2e412cc928a6303018999093f769f5a30beeb0a1c6cbf48d9e10xd44f70b4151086322022-09-02 17:55:0723 days 12 hrs ago0x9b204bef339cbe8807e63d7c9afda6d41c9bab4aOUT 0xc95daf083b754210458e62ead997453f74f470720 ETH0.00002051
0xd3a54793ffda48d0703221553148cbd906f2efbc6eeebf1ccd6df845da0c27500xd44f70b4151064222022-09-02 16:04:0023 days 14 hrs ago0x9b204bef339cbe8807e63d7c9afda6d41c9bab4aOUT 0xc95daf083b754210458e62ead997453f74f470720 ETH0.00000614
0xecfd73fbac0e3bf5d407f66696ae5f0602c11efe6fa37044608aed3803f1f12f0xd44f70b4150914292022-09-02 6:15:3124 days 28 mins ago0x9b204bef339cbe8807e63d7c9afda6d41c9bab4aOUT 0xc95daf083b754210458e62ead997453f74f470720 ETH0.00001913
0x22a726098ecb44cd9114d6b444d233e6ee8bfea281bf70392576b3f9049d55360xd44f70b4150912942022-09-02 6:09:3424 days 34 mins ago0x9b204bef339cbe8807e63d7c9afda6d41c9bab4aOUT 0xc95daf083b754210458e62ead997453f74f470720 ETH0.00001914
0x1d766498fbf7f5f3a8542feaf4b242152731e1657e26b9b817c1a800ad958e560xd44f70b4150912562022-09-02 6:07:0724 days 36 mins ago0x9b204bef339cbe8807e63d7c9afda6d41c9bab4aOUT 0xc95daf083b754210458e62ead997453f74f470720 ETH0.00001918
0x9feace67b022ac95a829260ce0581935c46f53e6dc1f9ab7e7bce24e31a82bcc0xd44f70b4147889012022-08-26 10:24:4430 days 20 hrs ago0x9b204bef339cbe8807e63d7c9afda6d41c9bab4aOUT 0xc95daf083b754210458e62ead997453f74f470720.408906855720422 ETH0.00001413
0xe65c2afb9a79f70c1d0dcc92a63eb99a71b288ac8075327b5269a529c188691d0xd44f70b4147888692022-08-26 10:23:3930 days 20 hrs ago0x9b204bef339cbe8807e63d7c9afda6d41c9bab4aOUT 0xc95daf083b754210458e62ead997453f74f470720 ETH0.00002174
0x61a4c32ce932fb9e2ffad0c293e7e17e98180d607a23d81cd193db11328d398b0xd44f70b4147888532022-08-26 10:23:1730 days 20 hrs ago0x9b204bef339cbe8807e63d7c9afda6d41c9bab4aOUT 0xc95daf083b754210458e62ead997453f74f470720 ETH0.00002222
0xe7b24f152b2797aac0ac8055ab63b4731b0952d36f6d6422146fcfbfc91cc2200xd44f70b4147887802022-08-26 10:21:3130 days 20 hrs ago0x9b204bef339cbe8807e63d7c9afda6d41c9bab4aOUT 0xc95daf083b754210458e62ead997453f74f470720 ETH0.00000661
0x1265916e7bd260b842ccd8ea336ca23efdd6b445fe76ca894c303d9c0ca16b570xd44f70b4147887372022-08-26 10:20:3930 days 20 hrs ago0x9b204bef339cbe8807e63d7c9afda6d41c9bab4aOUT 0xc95daf083b754210458e62ead997453f74f470720 ETH0.00002016
0x14d5a720f927ce6f7fad70480fcb62b91670a5b9662edaacab7c70ff9204ea760xd44f70b4147887052022-08-26 10:19:4930 days 20 hrs ago0x9b204bef339cbe8807e63d7c9afda6d41c9bab4aOUT 0xc95daf083b754210458e62ead997453f74f470720.27 ETH0.00002043
0xf0cf2b9378082cdfd2f43b745fe6148596dac58c5f94f6efadd7199a6c6f8665Mint147626172022-08-25 17:24:5631 days 13 hrs ago0x9b204bef339cbe8807e63d7c9afda6d41c9bab4aOUT 0x19f86cd00825b3819c779fd87588da59ff3a904d0 ETH0.00001496
0x2b6581b7dad70e7f631a8b72e5f27db01df33559bdbbf2ca7edd1e1f732292a70xd44f70b4146842762022-08-24 4:01:0633 days 2 hrs ago0x9b204bef339cbe8807e63d7c9afda6d41c9bab4aOUT 0xc95daf083b754210458e62ead997453f74f470720.2 ETH0.00000559
[ Download CSV Export 
Latest 7 internal transactions
Parent Txn Hash Block From To Value
0xd0f09e1e496e53e4fe923ff50b5d55f45a736cdb916673e33015d5df8249e9fa149453392022-08-29 16:01:1827 days 14 hrs ago 0xf5de760f2e916647fd766b4ad9e85ff943ce3a2b0x9b204bef339cbe8807e63d7c9afda6d41c9bab4a0.5 ETH
0xaa7dac638906ba9edd49f52b93c5f1738df2495471164fe95b4bf57c3cc77d73147774572022-08-26 4:50:3131 days 1 hr ago 0xf5de760f2e916647fd766b4ad9e85ff943ce3a2b0x9b204bef339cbe8807e63d7c9afda6d41c9bab4a0.5 ETH
0x7dbee9c96621cb85af1441a1ce2379c04f7cb5286427095838a14782a2be357e147065092022-08-24 14:21:0032 days 16 hrs ago 0xf5de760f2e916647fd766b4ad9e85ff943ce3a2b0x9b204bef339cbe8807e63d7c9afda6d41c9bab4a0.5 ETH
0x0247575608ec16bf31d3a4223e253d85cb0ef722c7af394888beeeaeab91c418142083862022-08-17 9:46:0839 days 20 hrs ago 0xc95daf083b754210458e62ead997453f74f470720x9b204bef339cbe8807e63d7c9afda6d41c9bab4a0.04958160421308292 ETH
0x4ac4be70c31ef899a0aff45a417f886a1bbf5595db2b3b738d937918c7bdd950142083042022-08-17 9:45:2139 days 20 hrs ago 0xc95daf083b754210458e62ead997453f74f470720x9b204bef339cbe8807e63d7c9afda6d41c9bab4a0.190122714101583236 ETH
0x93931d43e30f15b28a9bbb840a51630fc70945437e79f08dd79ca0f4a4997e12142082712022-08-17 9:44:5439 days 20 hrs ago 0xc95daf083b754210458e62ead997453f74f470720x9b204bef339cbe8807e63d7c9afda6d41c9bab4a0.140898492620136578 ETH
0x41d8f396aed4d61dff573c7f38a6b341acf2a56c6cf7579302b993b8e1db15bc133600842022-07-02 7:57:4885 days 22 hrs ago 0xf5de760f2e916647fd766b4ad9e85ff943ce3a2b0x9b204bef339cbe8807e63d7c9afda6d41c9bab4a0.5 ETH
[ Download CSV Export 
Loading

Contract Name:
0 ETH

Compiler Version
0

Optimization Enabled:
0 ETH

Other Settings:
-NA-
Block Transaction Gas Used Reward
Age Block Fee Address BC Fee Address Voting Power Jailed Incoming
Block Uncle Number Difficulty Gas Used Reward
Loading